User: anonymous   Login
Location: ??????
(55.0357°N, 38.6195°E)
Time: 00:50:17
(UTC+00:00)
Language:

Meteor 2-10 - Orbit

View from above orbital plane
View from above orbital plane
View from above satellite
View from above satellite

Ground track
Ground track

The orbit data is extracted from the following two-line orbital elements,

1 14452U 83109A   24168.67134757  .00000293  00000-0  11055-3 0  9997
2 14452  81.1617  15.2721 0090317 163.2738 197.1456 14.26894223113223
Epoch (UTC): 16 June 2024 16:06:44
Eccentricity: 0.0090317
inclination: 81.1617°
perigee height: 737 km
apogee height: 867 km
right ascension of ascending node: 15.2721°
argument of perigee: 163.2738°
revolutions per day: 14.26894223
mean anomaly at epoch: 197.1456°
orbit number at epoch: 11322

The dashed part of the orbit path shows where the satellite is in the earth's shadow,  

DLR